Dauntless Aviation
Airports South America Argentina
SABE
AEP

Aeroparque Jorge Newbery

Buenos Aires, ARGENTINA

Airport Info
Suggest Updated Information for this Airport

Location

Latitude / Longitude: 34°33'33"S / 58°24'56"W
  34°33.552'S / 58°24.936'W
  -34.5592 / -58.4156

Nearby radio navigation aids

FDO SAN FERNANDO VOR/DME. 132.7° 10.6nm from FDO to field.
OP AEROPARQUE JORGE NEWBERY NDB. 131.1° 4.3nm from OP to field.

Runway Information

Runway 13 /31

Dimensions: 6890 x 131 ft.
Surface: ASP
 
Runway 13
Runway 31
Latitude: -34.553942 -34.563844
Longitude: -58.425247 -58.407506
Elevation: 18 ft. 18 ft.
Runway true heading: 126.3 306.3
 

Instrument Procedures

  Aerodrome Chart

STARs (Standard Terminal Arrivals)

  STAR Rwy 13/16 SARGO7C KOVUK7C TENIL7C BELGRANO7C
  STAR Rwy 13/16 PAGON7C SAN ANTONIO7C ASADA7C VALOS8C
  STAR Rwy 13/16 SURBO7A KUKEN1C PAPIX1C
  STAR Rwy 31 SURBO2B SARGO7D KOVUK7D TENIL7D BELGRANO7D VALOS7D ASADA7D
  STAR Rwy 31 PAGON7D SAN ANTONIO7D

IAPs (Instrument Approach Procedures)

  VOR (DME) ILS Rwy 13
  VOR (DMS) ILS (DME) Rwy 13
  LI ILS (DME) Rwy 13
  VOR (DME) LO LI Rwy 13
  LI LO LI Rwy 13
  LI Rwy 31
  LI Rwy 31

Departure Procedures

  SID Rwy 13/31 LANDA3B VIBAM38 ATOVO38
  SID Rwy 13/31 EZEIZA8
  SID Rwy 13/31 EL PALOMAR 8
  SID Rwy 13/31 KUKEN7 SURBO7 DORVO7 LA PLAYA7
Satellite photo at:
Airport distance calculator
From:
Weather Reports

METAR

SABE

SABE 261200Z 23012KT 1200 R13R/M1400 DZ OVC006 10/10 Q1005
SADF
10.6nm W
SADF 261200Z 23012KT 2200 -DZ BR BKN003 OVC006 10/09 Q1006
SAEZ
16.2nm S
SAEZ 261200Z 21016KT 1000 R11/1200N DZ BR BKN006 OVC012 10/08 Q1006

TAF

SABE
TAF SABE 261100Z 2612/2712 27010KT 1500 DZ BKN004 BKN007 TX11/2618Z TN06/2710Z TEMPO 2614/2617 3000 DZ BKN007 BKN010 BECMG 2618/2620 24020G30KT 5000 RADZ SCT007 BKN010 BKN040 BECMG 2704/2706 20020KT 9999 BKN020
SADF
10.6nm W
TAF COR SADF 261110Z 2612/2712 22015KT 0800 DZBR BKN003 OVC006 TX11/2618Z TN05/2709Z BECMG 2613/2615 22020G30KT BECMG 2701/2703 22015KT 9999 BKN008 BECMG 2705/2707 CAVOK PROB30 2710/2712 22005KT 2000 BR NSC
SAEZ
16.2nm S
TAF SAEZ 261100Z 2612/2712 20015G30KT 1000 DZ BR OVC002 TX10/2612Z TN04/2710Z BECMG 2615/2618 5000 DZ BKN008 BECMG 2621/2700 20010KT 8000 SCT010 BKN015 PROB30 2706/2712 22005KT 2000 MIFG TEMPO 2708/2711 0800 FG NSC
SUCA
30.3nm NE
SUCA 261150Z 2612/2712 30020KT 8000 OVC008 TX12/2618Z TN07/2710Z TEMPO 2612/2702 23020G35KT 6000 RADZ BKN005 OVC060
Safelog

 

Dauntless Aviation

© 2007-2016 Dauntless Aviation, all rights reserved
Information provided via PilotNav comes from a variety of official and unofficial data sources. As errors are possible, do not use PilotNav for primary flight planning purposes. Verify any information that you receive via PilotNav with current and canonical charts and other official documents. The material in this database is subject to database copyrights held by Dauntless Aviation and may not be copied without the express permission of Dauntless Aviation - licenses for use of part of all of this data are available for purchase; enquire via the Dauntless Aviation helpdesk. A number of mechanisms and markers exist in the database to protect against and identify infringement / copyright. Automated queries against this website are stictly prohibited, and all activity is logged and analyzed.